Weather History for KNEW - September, 2013

Change the Weather History Date:

Wednesday, September 25, 2013

  Actual Average Record
Temperature  
Mean Temperature 82 °F 78 °F  
Max Temperature 90 °F 86 °F 93 °F (1993)
Min Temperature 74 °F 70 °F 56 °F (1990)
Degree Days  
Heating Degree Days 0 0  
Month to date heating degree days 0 0  
Since 1 July heating degree days 0 0  
Cooling Degree Days 17 13  
Month to date cooling degree days 444 384  
Year to date cooling degree days 2580 2630  
Growing Degree Days 32 (Base 50)    
Moisture  
Dew Point 71 °F    
Average Humidity 70    
Maximum Humidity 93    
Minimum Humidity 47    
Precipitation  
Precipitation 0.00 in 0.15 in 7.52 in (2002)
Month to date precipitation 7.45 4.33  
Year to date precipitation 57.76 48.54  
Snow  
Snow 0.00 in - - ()
Month to date snowfall 0.0  
Since 1 July snowfall 0.0  
Since 1 September snowfall 0.0  
Snow Depth 0.00 in    
Sea Level Pressure  
Sea Level Pressure 29.80 in    
Wind  
Wind Speed 4 mph (NNW)    
Max Wind Speed 9 mph    
Max Gust Speed 13 mph    
Visibility 10 miles    
Events Rain    
T = Trace of Precipitation, MM = Missing Value Source: NWS Daily Summary

Daily Weather History Graph

Daily Weather History Graph

Search for Another Location

Airport or City:

Trip Planner

Search our weather history database for the weather conditions in past years. The results will help you decide how hot, cold, wet, or windy it might be!

Date:

Astronomy

Sep. 25, 2013 Rise Set
Actual Time 6:50 AM CDT 6:52 PM CDT
Civil Twilight 6:26 AM CDT 7:16 PM CDT
Nautical Twilight 5:58 AM CDT 7:44 PM CDT
Astronomical Twilight 5:30 AM CDT 8:12 PM CDT
Moon 11:21 PM CDT (9/25) 12:33 PM CDT (9/25)
Length of Visible Light 12h 50m
Length of Day
12h 02m
Waning Gibbous, 64% of the Moon is Illuminated
Sep 25
Waning Gibbous
Sep 26
Last Quarter
Oct 4
New
Oct 11
First Quarter
Oct 18
Full

Hourly Weather History & Observations

Time (CDT) Temp. Heat Index Dew Point Humidity Pressure Visibility Wind Dir Wind Speed Gust Speed Precip Events Conditions
12:04 AM 78.8 °F - 73.4 °F 83% 29.81 in 10.0 mi North 12.7 mph - 0.00 in Rain Rain
12:53 AM 79.0 °F - 73.9 °F 84% 29.79 in 10.0 mi North 8.1 mph - 0.00 in Rain Rain
1:53 AM 78.1 °F - 73.0 °F 84% 29.78 in 10.0 mi North 9.2 mph - 0.00 in Rain Rain
2:53 AM 78.1 °F - 73.0 °F 84% 29.78 in 10.0 mi NNW 8.1 mph - 0.00 in Rain Rain
3:53 AM 78.1 °F - 72.0 °F 81% 29.78 in 10.0 mi NNW 10.4 mph - 0.00 in Rain Rain
4:53 AM 78.1 °F - 72.0 °F 81% 29.78 in 10.0 mi NNW 10.4 mph - 0.00 in Rain Rain
5:53 AM 78.1 °F - 73.0 °F 84% 29.79 in 10.0 mi North 8.1 mph - 0.00 in Rain Rain
6:53 AM 78.1 °F - 73.0 °F 84% 29.80 in 10.0 mi North 8.1 mph - 0.00 in Rain Rain
7:53 AM 79.0 °F - 73.0 °F 82% 29.82 in 10.0 mi North 8.1 mph - 0.00 in   Partly Cloudy
8:53 AM 80.1 °F 84.2 °F 73.0 °F 79% 29.82 in 10.0 mi North 6.9 mph - N/A   Clear
9:53 AM 82.0 °F 87.9 °F 73.9 °F 76% 29.83 in 10.0 mi North 6.9 mph - N/A   Partly Cloudy
10:53 AM 82.9 °F 88.8 °F 73.0 °F 72% 29.84 in 10.0 mi North 6.9 mph - N/A   Clear
11:53 AM 82.9 °F 88.8 °F 73.0 °F 72% 29.84 in 10.0 mi NW 6.9 mph - N/A   Clear
12:53 PM 82.9 °F 88.8 °F 73.0 °F 72% 29.82 in 10.0 mi West 3.5 mph - N/A   Partly Cloudy
1:53 PM 82.9 °F 87.5 °F 71.1 °F 67% 29.80 in 10.0 mi WSW 3.5 mph - N/A   Clear
2:53 PM 84.9 °F 90.7 °F 72.0 °F 65% 29.78 in 10.0 mi West 4.6 mph - N/A   Partly Cloudy
3:53 PM 86.0 °F 90.7 °F 70.0 °F 59% 29.77 in 10.0 mi West 4.6 mph - N/A   Partly Cloudy
4:53 PM 86.0 °F 88.8 °F 66.9 °F 53% 29.76 in 10.0 mi Calm Calm - N/A   Clear
5:53 PM 87.1 °F 89.2 °F 66.0 °F 49% 29.76 in 10.0 mi Calm Calm - N/A   Clear
6:53 PM 86.0 °F 88.8 °F 66.9 °F 53% 29.77 in 10.0 mi Calm Calm - N/A   Clear
7:53 PM 86.0 °F 88.8 °F 66.9 °F 53% 29.78 in 10.0 mi SW 5.8 mph - N/A   Mostly Cloudy
8:53 PM 84.9 °F 87.6 °F 66.9 °F 55% 29.80 in 10.0 mi West 3.5 mph - N/A   Clear
9:53 PM 84.0 °F 85.4 °F 64.0 °F 51% 29.81 in 10.0 mi North 12.7 mph - N/A   Clear
10:53 PM 82.0 °F 84.1 °F 66.0 °F 58% 29.82 in 10.0 mi North 12.7 mph - N/A   Clear
11:53 PM 82.0 °F 84.1 °F 66.0 °F 58% 29.81 in 10.0 mi NE 10.4 mph - N/A   Clear